{"data":{"norad_id":58521,"epoch":"2026-05-25T01:10:13.447200Z","epoch_age_seconds":71503,"freshness":"FRESH","line1":"1 58521U 23191P   26145.04876675  .00018475  00000+0  67882-3 0  9996","line2":"2 58521  43.0033  31.8431 0001182 265.5613  94.5104 15.27598170137128","mean_motion":15.2759817,"eccentricity":0.0001182,"inclination_deg":43.0033,"raan_deg":31.8431,"arg_perigee_deg":265.5613,"mean_anomaly_deg":94.5104,"bstar":0.00067882,"rev_number":13712,"period_min":94.265627458823,"perigee_km":482.18370329667,"apogee_km":483.80567482797,"semimajor_km":6861.1316890623,"source":"CELESTRAK","updated_at":"2026-05-25T13:38:18.657942Z"}}